timestamp,wind_dir_avg,wind_spd_avg,wind_spd_max_dir,wind_spd_gust,battery_voltage,lat,long
2023-01-03 00:04:00+00:00,22.0,1.45,36.0,2.19,12.33,47.59359,-54.27349
2023-01-03 00:14:00+00:00,24.0,2.19,309.0,3.35,12.33,47.59359,-54.27349
2023-01-03 00:24:00+00:00,35.0,1.75,56.0,2.44,12.33,47.59359,-54.27349
2023-01-03 00:34:00+00:00,53.0,1.66,44.0,2.33,12.33,47.59359,-54.27349
2023-01-03 00:44:00+00:00,64.0,1.69,77.0,2.23,12.33,47.59359,-54.27349
2023-01-03 00:54:00+00:00,50.0,2.13,37.0,2.65,12.33,47.59359,-54.27349
2023-01-03 01:04:00+00:00,43.0,1.91,333.0,2.45,12.33,47.59359,-54.27349
2023-01-03 01:14:00+00:00,17.0,0.91,283.0,2.65,12.25,47.59359,-54.27349
2023-01-03 01:24:00+00:00,12.0,1.11,290.0,3.28,12.25,47.59359,-54.27349
2023-01-03 01:34:00+00:00,299.0,1.72,287.0,3.46,12.25,47.59359,-54.27349
2023-01-03 01:44:00+00:00,293.0,2.8,287.0,3.49,12.25,47.59359,-54.27349
2023-01-03 01:54:00+00:00,29.0,2.74,31.0,3.11,12.25,47.59359,-54.27349
2023-01-03 02:04:00+00:00,28.0,1.78,45.0,2.23,12.25,47.59359,-54.27349
2023-01-03 02:14:00+00:00,38.0,2.02,37.0,2.45,12.25,47.59359,-54.27349
2023-01-03 02:24:00+00:00,46.0,2.63,41.0,3.0,12.25,47.59359,-54.27349
2023-01-03 02:34:00+00:00,6.0,1.75,55.0,2.86,12.25,47.59359,-54.27349
2023-01-03 02:44:00+00:00,37.0,2.88,40.0,3.53,12.25,47.59359,-54.27349
2023-01-03 02:54:00+00:00,341.0,1.6,350.0,2.06,12.25,47.59359,-54.27349
2023-01-03 03:04:00+00:00,38.0,2.79,43.0,3.31,12.25,47.59359,-54.27349
2023-01-03 03:14:00+00:00,38.0,2.63,39.0,3.1,12.25,47.59359,-54.27349
2023-01-03 03:24:00+00:00,327.0,2.94,312.0,4.21,12.25,47.59359,-54.27349
2023-01-03 03:34:00+00:00,356.0,5.29,355.0,5.67,12.25,47.59359,-54.27349
2023-01-03 03:44:00+00:00,17.0,4.11,22.0,4.69,12.25,47.59359,-54.27349
2023-01-03 03:54:00+00:00,10.0,2.82,34.0,3.6,12.25,47.59359,-54.27349
2023-01-03 04:04:00+00:00,22.0,2.76,30.0,3.41,12.25,47.59359,-54.27349
2023-01-03 04:14:00+00:00,0.0,2.23,345.0,2.75,12.17,47.59359,-54.27349
2023-01-03 04:24:00+00:00,348.0,1.36,18.0,2.08,12.17,47.59359,-54.27349
2023-01-03 04:34:00+00:00,21.0,1.61,26.0,2.33,12.17,47.59359,-54.27349
2023-01-03 04:44:00+00:00,344.0,1.38,353.0,1.63,12.17,47.59359,-54.27349
2023-01-03 04:54:00+00:00,321.0,1.69,319.0,2.09,12.17,47.59359,-54.27349
2023-01-03 05:04:00+00:00,341.0,1.73,324.0,2.33,12.17,47.59359,-54.27349
2023-01-03 05:14:01+00:00,325.0,1.44,307.0,3.54,12.17,47.59359,-54.27349
2023-01-03 05:24:01+00:00,286.0,3.7,290.0,4.01,12.17,47.59359,-54.27349
2023-01-03 05:34:01+00:00,280.0,3.72,276.0,3.95,12.17,47.59359,-54.27349
2023-01-03 05:44:01+00:00,292.0,3.4,292.0,3.83,12.17,47.59359,-54.27349
2023-01-03 05:54:01+00:00,300.0,3.49,296.0,4.13,12.17,47.59359,-54.27349
2023-01-03 06:04:01+00:00,307.0,4.69,307.0,5.33,12.17,47.59359,-54.27349
2023-01-03 06:14:00+00:00,304.0,5.41,291.0,8.12,12.17,47.59359,-54.27349
2023-01-03 06:24:00+00:00,311.0,5.38,309.0,5.92,12.17,47.59359,-54.27349
2023-01-03 06:34:00+00:00,298.0,6.83,290.0,9.3,12.17,47.59359,-54.27349
2023-01-03 06:44:00+00:00,318.0,5.27,322.0,6.55,12.17,47.59359,-54.27349
2023-01-03 06:54:00+00:00,313.0,5.82,317.0,6.73,12.17,47.59359,-54.27349
2023-01-03 07:04:00+00:00,314.0,3.91,321.0,4.52,12.17,47.59359,-54.27349
2023-01-03 07:14:01+00:00,320.0,4.91,322.0,5.72,12.09,47.59359,-54.27349
2023-01-03 07:24:01+00:00,315.0,5.3,319.0,6.13,12.09,47.59359,-54.27349
2023-01-03 07:34:01+00:00,308.0,6.47,307.0,7.51,12.09,47.59359,-54.27349
2023-01-03 07:44:01+00:00,304.0,7.18,302.0,8.3,12.09,47.59359,-54.27349
2023-01-03 07:54:01+00:00,308.0,7.45,309.0,8.67,12.09,47.59359,-54.27349
2023-01-03 08:04:01+00:00,307.0,7.14,304.0,8.24,12.09,47.59359,-54.27349
2023-01-03 08:14:00+00:00,306.0,6.85,307.0,8.74,12.09,47.59359,-54.27349
2023-01-03 08:24:00+00:00,305.0,5.78,304.0,6.72,12.09,47.59359,-54.27349
2023-01-03 08:34:00+00:00,304.0,6.71,304.0,7.92,12.09,47.59359,-54.27349
2023-01-03 08:44:00+00:00,306.0,6.66,307.0,7.4,12.09,47.59359,-54.27349
2023-01-03 08:54:00+00:00,310.0,7.84,307.0,9.04,12.09,47.59359,-54.27349
2023-01-03 09:04:00+00:00,313.0,6.35,325.0,7.67,12.09,47.59359,-54.27349
2023-01-03 09:14:00+00:00,316.0,6.68,319.0,7.99,12.09,47.59359,-54.27349
2023-01-03 09:24:00+00:00,317.0,7.12,315.0,8.18,12.09,47.59359,-54.27349
2023-01-03 09:34:00+00:00,305.0,7.83,299.0,8.7,12.09,47.59359,-54.27349
2023-01-03 09:44:00+00:00,306.0,5.46,306.0,6.47,12.09,47.59359,-54.27349
2023-01-03 09:54:00+00:00,310.0,5.24,311.0,6.87,12.09,47.59359,-54.27349
2023-01-03 10:04:00+00:00,301.0,5.92,291.0,7.02,12.09,47.59359,-54.27349
2023-01-03 10:14:00+00:00,303.0,5.42,307.0,6.21,12.01,47.59359,-54.27349
2023-01-03 10:24:00+00:00,308.0,5.53,307.0,6.68,12.01,47.59359,-54.27349
2023-01-03 10:34:00+00:00,314.0,6.95,318.0,7.94,12.01,47.59359,-54.27349
2023-01-03 10:44:00+00:00,323.0,7.7,327.0,8.75,12.01,47.59359,-54.27349
2023-01-03 10:54:00+00:00,312.0,6.19,311.0,6.77,12.01,47.59359,-54.27349
2023-01-03 11:04:00+00:00,315.0,6.17,318.0,7.71,12.01,47.59359,-54.27349
2023-01-03 11:14:00+00:00,309.0,4.89,313.0,5.83,12.01,47.59359,-54.27349
2023-01-03 11:24:00+00:00,316.0,6.22,325.0,7.24,12.01,47.59359,-54.27349
2023-01-03 11:34:00+00:00,304.0,6.63,291.0,7.82,12.01,47.59359,-54.27349
2023-01-03 11:44:00+00:00,301.0,6.49,296.0,7.8,12.01,47.59359,-54.27349
2023-01-03 11:54:00+00:00,301.0,6.65,300.0,7.88,12.01,47.59359,-54.27349
2023-01-03 12:04:00+00:00,290.0,7.17,288.0,8.15,12.01,47.59359,-54.27349
2023-01-03 12:14:00+00:00,297.0,8.14,298.0,9.34,12.01,47.59359,-54.27349
2023-01-03 12:24:00+00:00,309.0,6.5,311.0,7.36,12.01,47.59359,-54.27349
2023-01-03 12:34:00+00:00,297.0,8.01,294.0,8.94,12.01,47.59359,-54.27349
2023-01-03 12:44:00+00:00,302.0,6.61,301.0,8.17,12.01,47.59359,-54.27349
2023-01-03 12:54:00+00:00,307.0,8.08,310.0,9.52,12.01,47.59359,-54.27349
2023-01-03 13:04:00+00:00,299.0,7.94,297.0,9.15,12.01,47.59359,-54.27349
2023-01-03 13:14:00+00:00,299.0,7.76,294.0,9.01,12.41,47.59359,-54.27349
2023-01-03 13:24:00+00:00,297.0,8.76,303.0,9.91,12.41,47.59359,-54.27349
2023-01-03 13:34:00+00:00,298.0,7.68,301.0,8.72,12.41,47.59359,-54.27349
2023-01-03 13:44:00+00:00,300.0,8.32,299.0,9.45,12.41,47.59359,-54.27349
2023-01-03 13:54:00+00:00,289.0,7.35,294.0,8.59,12.41,47.59359,-54.27349
2023-01-03 14:04:00+00:00,290.0,8.42,287.0,10.74,12.41,47.59359,-54.27349
2023-01-03 14:14:00+00:00,297.0,7.84,299.0,9.13,13.05,47.59359,-54.27349
2023-01-03 14:24:00+00:00,292.0,5.77,295.0,6.92,13.05,47.59359,-54.27349
2023-01-03 14:34:00+00:00,287.0,6.91,289.0,7.42,13.05,47.59359,-54.27349
2023-01-03 14:44:00+00:00,301.0,5.56,302.0,6.31,13.05,47.59359,-54.27349
2023-01-03 14:54:00+00:00,301.0,7.05,293.0,8.36,13.05,47.59359,-54.27349
2023-01-03 15:04:00+00:00,298.0,6.81,301.0,7.71,13.05,47.59359,-54.27349
2023-01-03 15:14:00+00:00,303.0,6.14,303.0,7.11,14.4,47.59359,-54.27349
2023-01-03 15:24:00+00:00,301.0,6.09,307.0,6.89,14.4,47.59359,-54.27349
2023-01-03 15:34:00+00:00,305.0,8.36,304.0,9.64,14.4,47.59359,-54.27349
2023-01-03 15:44:00+00:00,305.0,6.33,306.0,7.53,14.4,47.59359,-54.27349
2023-01-03 15:54:00+00:00,287.0,8.18,281.0,9.37,14.4,47.59359,-54.27349
2023-01-03 16:04:00+00:00,292.0,6.46,289.0,7.41,14.4,47.59359,-54.27349
2023-01-03 16:14:00+00:00,310.0,6.71,307.0,7.83,14.48,47.59359,-54.27349
2023-01-03 16:24:00+00:00,304.0,5.37,308.0,6.17,14.48,47.59359,-54.27349
2023-01-03 16:34:00+00:00,300.0,7.22,295.0,8.62,14.48,47.59359,-54.27349
2023-01-03 16:44:00+00:00,296.0,7.15,297.0,8.5,14.48,47.59359,-54.27349
2023-01-03 16:54:00+00:00,284.0,6.47,285.0,7.72,14.48,47.59359,-54.27349
2023-01-03 17:04:00+00:00,311.0,7.14,298.0,8.76,14.48,47.59359,-54.27349
2023-01-03 17:14:01+00:00,316.0,5.33,317.0,6.58,13.37,47.59359,-54.27349
2023-01-03 17:24:01+00:00,300.0,6.03,292.0,8.4,13.37,47.59359,-54.27349
2023-01-03 17:34:01+00:00,300.0,6.94,298.0,7.9,13.37,47.59359,-54.27349
2023-01-03 17:44:01+00:00,306.0,6.11,297.0,7.23,13.37,47.59359,-54.27349
2023-01-03 17:54:01+00:00,308.0,5.47,309.0,5.98,13.37,47.59359,-54.27349
2023-01-03 18:04:01+00:00,291.0,5.59,293.0,6.95,13.37,47.59359,-54.27349
2023-01-03 18:14:01+00:00,298.0,6.8,298.0,8.57,13.44,47.59359,-54.27349
2023-01-03 18:24:01+00:00,313.0,7.92,317.0,9.02,13.44,47.59359,-54.27349
2023-01-03 18:34:01+00:00,291.0,6.9,289.0,7.91,13.44,47.59359,-54.27349
2023-01-03 18:44:01+00:00,281.0,6.83,280.0,10.14,13.44,47.59359,-54.27349
2023-01-03 18:54:01+00:00,284.0,6.12,280.0,8.59,13.44,47.59359,-54.27349
2023-01-03 19:04:01+00:00,285.0,6.09,279.0,9.03,13.44,47.59359,-54.27349
2023-01-03 19:14:00+00:00,301.0,5.78,285.0,9.39,12.97,47.59359,-54.27349
2023-01-03 19:24:00+00:00,314.0,5.35,315.0,6.52,12.97,47.59359,-54.27349
2023-01-03 19:34:00+00:00,321.0,6.13,326.0,7.13,12.97,47.59359,-54.27349
2023-01-03 19:44:00+00:00,292.0,5.05,287.0,8.11,12.97,47.59359,-54.27349
2023-01-03 19:54:00+00:00,302.0,6.71,296.0,8.94,12.97,47.59359,-54.27349
2023-01-03 20:04:00+00:00,307.0,6.52,302.0,9.47,12.97,47.59359,-54.27349
2023-01-03 20:14:00+00:00,310.0,6.69,302.0,8.77,12.57,47.59359,-54.27349
2023-01-03 20:24:00+00:00,312.0,7.03,300.0,9.51,12.57,47.59359,-54.27349
2023-01-03 20:34:00+00:00,311.0,5.42,314.0,6.1,12.57,47.59359,-54.27349
2023-01-03 20:44:00+00:00,316.0,6.42,302.0,9.09,12.57,47.59359,-54.27349
2023-01-03 20:54:00+00:00,298.0,7.76,293.0,9.27,12.57,47.59359,-54.27349
2023-01-03 21:04:00+00:00,304.0,7.1,288.0,9.85,12.57,47.59359,-54.27349
2023-01-03 21:14:00+00:00,293.0,7.28,293.0,8.52,12.49,47.59359,-54.27349
2023-01-03 21:24:00+00:00,298.0,6.68,299.0,7.98,12.49,47.59359,-54.27349
2023-01-03 21:34:00+00:00,293.0,6.55,287.0,9.02,12.49,47.59359,-54.27349
2023-01-03 21:44:00+00:00,300.0,6.24,299.0,7.29,12.49,47.59359,-54.27349
2023-01-03 21:54:00+00:00,298.0,4.91,314.0,5.57,12.49,47.59359,-54.27349
2023-01-03 22:04:00+00:00,303.0,6.28,302.0,8.57,12.49,47.59359,-54.27349
2023-01-03 22:14:00+00:00,292.0,6.11,293.0,7.48,12.49,47.59359,-54.27349
2023-01-03 22:24:00+00:00,307.0,6.82,303.0,8.27,12.49,47.59359,-54.27349
2023-01-03 22:34:00+00:00,294.0,6.72,294.0,8.14,12.49,47.59359,-54.27349
2023-01-03 22:44:00+00:00,312.0,5.39,319.0,6.35,12.49,47.59359,-54.27349
2023-01-03 22:54:00+00:00,294.0,7.13,303.0,8.23,12.49,47.59359,-54.27349
2023-01-03 23:04:00+00:00,315.0,5.73,312.0,7.16,12.49,47.59359,-54.27349
2023-01-03 23:14:00+00:00,284.0,5.69,287.0,8.4,12.41,47.59359,-54.27349
2023-01-03 23:24:00+00:00,312.0,3.27,297.0,4.01,12.41,47.59359,-54.27349
2023-01-03 23:34:00+00:00,306.0,4.37,308.0,4.93,12.41,47.59359,-54.27349
2023-01-03 23:44:00+00:00,323.0,4.32,325.0,5.0,12.41,47.59359,-54.27349
2023-01-03 23:54:00+00:00,302.0,4.38,299.0,5.1,12.41,47.59359,-54.27349
